カタログに戻る

COSMOS 1375 DEB

運用中LEO
NORAD 18279·DEBRIS·🇷🇺 Russia

打ち上げ Jun 6, 1982 から Plesetsk Cosmodrome

Loading…

次のパス (今後24時間)

TLE

最新Source: Space-Track

元期: Sep 13, 2026, 23:25 UTC

1 18279U 82055BB  26256.97625574  .00001404  00000-0  95197-3 0  9996
2 18279  65.7882 217.1425 0055190 310.9871 110.2155 14.02682618 59924

AllMySatでCOSMOS 1375 DEBをリアルタイム追跡

Download on the App Store